This is the latest recevied weather packets stored in our database for station/object KC0RPY. If no packets are shown the sender has not sent any weather packets the latest 10 day(s).
| Time | Temp. | Humidity | Pressure | Rain* | Wind** | Luminosity | Snow |
|---|---|---|---|---|---|---|---|
| 1777932399 | 27.78° C | 45% | 1002.7 hPa | 0 mm | - | 499 W/m² | - |
| 1777932097 | 28.33° C | 43% | 1002.7 hPa | 0 mm | - | 591 W/m² | - |
| 1777931793 | 27.78° C | 44% | 1002.7 hPa | 0 mm | - | 590 W/m² | - |
| 1777931491 | 27.22° C | 43% | 1002.7 hPa | 0 mm | - | 390 W/m² | - |
| 1777931186 | 27.22° C | 43% | 1002.7 hPa | 0 mm | - | 386 W/m² | - |
| 1777930883 | 27.22° C | 45% | 1003.1 hPa | 0 mm | - | 510 W/m² | - |
| 1777930579 | 27.22° C | 45% | 1003.1 hPa | 0 mm | - | 502 W/m² | - |
| 1777930276 | 27.22° C | 44% | 1003.1 hPa | 0 mm | - | 527 W/m² | - |
| 1777929972 | 27.22° C | 46% | 1003.1 hPa | 0 mm | - | 437 W/m² | - |
| 1777929670 | 26.67° C | 46% | 1003.1 hPa | 0 mm | - | 363 W/m² | - |
| 1777929367 | 27.22° C | 46% | 1003.1 hPa | 0 mm | - | 437 W/m² | - |
| 1777929063 | 27.22° C | 45% | 1003.1 hPa | 0 mm | - | 451 W/m² | - |
| 1777928761 | 27.22° C | 45% | 1003.1 hPa | 0 mm | - | 488 W/m² | - |
| 1777928457 | 26.67° C | 45% | 1003.1 hPa | 0 mm | - | 338 W/m² | - |
| 1777928155 | 26.67° C | 44% | 1003.1 hPa | 0 mm | - | 336 W/m² | - |
| 1777927853 | 26.67° C | 45% | 1003.4 hPa | 0 mm | - | 620 W/m² | - |
| 1777927550 | 26.67° C | 48% | 1003.4 hPa | 0 mm | - | 386 W/m² | - |
| 1777927249 | 26.67° C | 47% | 1003.1 hPa | 0 mm | - | 324 W/m² | - |
| 1777926947 | 26.67° C | 46% | 1003.7 hPa | 0 mm | - | 503 W/m² | - |
| 1777926644 | 26.67° C | 45% | 1003.4 hPa | 0 mm | - | 365 W/m² | - |
| 1777926339 | 26.67° C | 46% | 1003.7 hPa | 0 mm | - | 438 W/m² | - |
| 1777926037 | 26.67° C | 46% | 1003.7 hPa | 0 mm | - | 301 W/m² | - |
| 1777925734 | 27.22° C | 46% | 1003.4 hPa | 0 mm | - | 534 W/m² | - |
| 1777925432 | 26.67° C | 48% | 1003.4 hPa | 0 mm | - | 645 W/m² | - |
| 1777925127 | 27.22° C | 47% | 1003.7 hPa | 0 mm | - | 706 W/m² | - |
* Rain latest hour (hover to see other rain measurements)
** Current wind speed in m/s (hover to see current wind gust speed)